DW3588 Weather Reports


Display with metric or nautical units.
time (UTC)temp
F
wind
direction
speed
MPH
gust
MPH
rain 1hr
in
rain 24hr
in
rain mn
in
humidity
%
barometer
mb
20260831151931 57 30 0.0 1.0 0.00 0.00 0.00 83 1011.7
20260831151420 57 30 0.0 1.0 0.00 0.00 0.00 83 1011.7
20260831150918 57 30 0.0 0.0 0.00 0.00 0.00 83 1011.7
20260831150410 57 30 0.0 0.0 0.00 0.00 0.00 83 1011.5
20260831145907 57 30 0.0 1.0 0.00 0.00 0.00 83 1011.6
20260831145406 57 30 0.0 1.0 0.00 0.00 0.00 83 1011.5
20260831144908 57 30 0.0 1.0 0.00 0.00 0.00 83 1011.5
20260831144407 57 30 0.0 1.0 0.00 0.00 0.00 82 1011.5
20260831144124 57 30 0.0 0.0 0.00 0.00 0.00 82 1011.5
20260831143400 57 30 0.0 0.0 0.00 0.00 0.00 82 1011.4
20260831142900 57 30 0.0 0.0 0.00 0.00 0.00 82 1011.4
20260831142358 57 30 0.0 1.0 0.00 0.00 0.00 82 1011.3
20260831142121 57 30 0.0 1.0 0.00 0.00 0.00 82 1011.2
20260831141358 57 30 0.0 1.0 0.00 0.00 0.00 82 1011.2
20260831140852 57 30 0.0 0.0 0.00 0.00 0.00 83 1011.1
20260831140350 57 30 0.0 1.0 0.00 0.00 0.00 83 1011.0
20260831140338 57 30 0.0 1.0 0.00 0.00 0.00 83 1011.0
20260831135347 57 30 0.0 0.0 0.00 0.00 0.00 83 1010.9
20260831134845 57 30 0.0 1.0 0.00 0.00 0.00 83 1010.8
20260831134343 57 30 0.0 1.0 0.00 0.00 0.00 83 1010.7
20260831133841 56 30 0.0 0.0 0.00 0.00 0.00 83 1010.7
20260831133340 56 30 0.0 0.0 0.00 0.00 0.00 83 1010.6
20260831132837 56 30 0.0 0.0 0.00 0.00 0.00 83 1010.6
20260831132338 57 30 0.0 0.0 0.00 0.00 0.00 83 1010.6
20260831131836 57 30 0.0 0.0 0.00 0.00 0.00 83 1010.6
20260831131549 57 30 0.0 0.0 0.00 0.00 0.00 83 1010.5
20260831131055 57 30 0.0 0.0 0.00 0.00 0.00 83 1010.6
20260831130329 57 30 0.0 2.0 0.00 0.00 0.00 83 1010.5
20260831130055 57 30 0.0 3.0 0.00 0.00 0.00 83 1010.4
20260831125325 58 30 0.0 3.0 0.00 0.00 0.00 82 1010.3
20260831124824 58 302 0.0 0.0 0.00 0.00 0.00 82 1010.4
20260831124547 58 303 0.0 1.0 0.00 0.00 0.00 81 1010.3
20260831123816 58 303 0.0 2.0 0.00 0.00 0.00 80 1010.3
20260831123314 58 303 1.0 3.0 0.00 0.00 0.00 79 1010.2
20260831122813 58 303 1.0 5.0 0.00 0.00 0.00 78 1010.2
20260831122536 58 304 1.0 5.0 0.00 0.00 0.00 80 1010.2
20260831121810 58 293 0.0 4.0 0.00 0.00 0.00 82 1010.2
20260831121308 58 195 0.0 1.0 0.00 0.00 0.00 82 1010.2
20260831120806 58 195 0.0 0.0 0.00 0.00 0.00 82 1010.1
20260831120304 58 195 0.0 0.0 0.00 0.00 0.00 82 1010.1
20260831120257 58 195 0.0 0.0 0.00 0.00 0.00 82 1010.1
20260831115306 58 195 0.0 1.0 0.00 0.00 0.00 81 1010.1
20260831115248 58 195 0.0 1.0 0.00 0.00 0.00 81 1010.0
20260831114526 58 196 0.0 1.0 0.00 0.00 0.00 81 1010.0
20260831113800 58 223 0.0 1.0 0.00 0.00 0.00 80 1010.0
20260831113257 58 223 0.0 1.0 0.00 0.00 0.00 80 1009.9
20260831112758 59 223 0.0 1.0 0.00 0.00 0.00 80 1009.9
20260831112256 59 223 0.0 1.0 0.00 0.00 0.00 79 1009.9
20260831111753 59 223 0.0 0.0 0.00 0.00 0.00 79 1009.8
20260831111254 59 223 0.0 0.0 0.00 0.00 0.00 78 1009.8
20260831110752 59 223 0.0 0.0 0.00 0.00 0.00 78 1009.8
20260831110250 59 223 0.0 0.0 0.00 0.00 0.00 77 1009.8
20260831105747 60 223 0.0 1.0 0.00 0.00 0.00 77 1009.8
20260831105242 60 223 0.0 1.0 0.00 0.00 0.00 76 1009.8
20260831104739 60 223 0.0 1.0 0.00 0.00 0.00 75 1009.8
20260831104454 60 222 0.0 0.0 0.00 0.00 0.00 74 1009.8
20260831103738 60 222 0.0 0.0 0.00 0.00 0.00 73 1009.8
20260831103238 60 222 0.0 0.0 0.00 0.00 0.00 72 1009.8
20260831102954 61 222 0.0 0.0 0.00 0.00 0.00 70 1009.8
20260831102234 61 222 0.0 2.0 0.00 0.00 0.00 69 1009.8
20260831101731 61 222 0.0 2.0 0.00 0.00 0.00 69 1009.8
20260831101231 61 223 0.0 0.0 0.00 0.00 0.00 69 1009.7
20260831100729 61 223 0.0 0.0 0.00 0.00 0.00 67 1009.6
20260831100224 61 223 0.0 0.0 0.00 0.00 0.00 66 1009.7
20260831095722 61 223 0.0 0.0 0.00 0.00 0.00 65 1009.7
20260831095219 62 223 0.0 0.0 0.00 0.00 0.00 65 1009.7
20260831094718 62 223 0.0 0.0 0.00 0.00 0.00 64 1009.6
20260831094441 62 223 0.0 1.0 0.00 0.00 0.00 64 1009.6
20260831093719 62 223 0.0 1.0 0.00 0.00 0.00 65 1009.6
20260831093214 62 223 0.0 0.0 0.00 0.00 0.00 65 1009.5
20260831092717 62 223 0.0 0.0 0.00 0.00 0.00 65 1009.6
20260831092215 62 223 0.0 0.0 0.00 0.00 0.00 64 1009.6
20260831091936 62 223 0.0 0.0 0.00 0.00 0.00 63 1009.6
20260831091211 62 223 0.0 0.0 0.00 0.00 0.00 63 1009.7
20260831090707 62 223 0.0 0.0 0.00 0.00 0.00 63 1009.6
20260831090208 62 223 0.0 0.0 0.00 0.00 0.00 62 1009.6
20260831085708 63 223 0.0 0.0 0.00 0.00 0.00 61 1009.6
20260831085207 63 223 0.0 0.0 0.00 0.00 0.00 60 1009.6
20260831084705 64 223 0.0 0.0 0.00 0.00 0.00 60 1009.6
20260831084206 64 223 0.0 0.0 0.00 0.00 0.00 59 1009.6
20260831083703 64 223 0.0 0.0 0.00 0.00 0.00 58 1009.7
20260831083200 64 223 0.0 1.0 0.00 0.00 0.00 58 1009.6
20260831082700 64 223 0.0 2.0 0.00 0.00 0.00 59 1009.6
20260831082157 64 223 0.0 2.0 0.00 0.00 0.00 57 1009.6
20260831081656 64 223 0.0 0.0 0.00 0.00 0.00 56 1009.7
20260831081154 64 223 0.0 1.0 0.00 0.00 0.00 56 1009.7
20260831080651 64 223 0.0 2.0 0.00 0.00 0.00 56 1009.7
20260831080151 64 223 0.0 2.0 0.00 0.00 0.00 57 1009.7
20260831075649 64 223 0.0 0.0 0.00 0.00 0.00 55 1009.8
20260831075150 64 223 0.0 2.0 0.00 0.00 0.00 55 1009.8
20260831074645 64 223 0.0 2.0 0.00 0.00 0.00 55 1009.8
20260831074143 64 223 0.0 0.0 0.00 0.00 0.00 54 1009.8
20260831073645 65 223 0.0 0.0 0.00 0.00 0.00 53 1009.7
20260831073143 65 223 0.0 0.0 0.00 0.00 0.00 53 1009.8
20260831072643 65 223 0.0 0.0 0.00 0.00 0.00 53 1009.7
20260831072143 66 223 0.0 2.0 0.00 0.00 0.00 52 1009.7
20260831071640 66 223 0.0 2.0 0.00 0.00 0.00 52 1009.7
20260831071138 66 223 0.0 0.0 0.00 0.00 0.00 50 1009.7
20260831070637 67 223 0.0 3.0 0.00 0.00 0.00 50 1009.7
20260831070406 67 223 0.0 3.0 0.00 0.00 0.00 50 1009.7
20260831065635 67 223 0.0 1.0 0.00 0.00 0.00 50 1009.7
20260831065134 67 223 0.0 3.0 0.00 0.00 0.00 50 1009.8
20260831064631 68 223 1.0 3.0 0.00 0.00 0.00 49 1009.8
20260831064130 68 223 0.0 3.0 0.00 0.00 0.00 49 1009.8
20260831063630 67 224 0.0 2.0 0.00 0.00 0.00 49 1009.8
20260831063131 67 224 0.0 0.0 0.00 0.00 0.00 49 1009.9
20260831062614 68 224 0.0 2.0 0.00 0.00 0.00 48 1009.9
20260831062113 68 224 0.0 2.0 0.00 0.00 0.00 47 1009.9
20260831061612 68 225 0.0 2.0 0.00 0.00 0.00 48 1009.9
20260831061111 69 225 0.0 2.0 0.00 0.00 0.00 48 1010.0
20260831060609 69 225 1.0 2.0 0.00 0.00 0.00 48 1010.0
20260831060107 69 225 1.0 4.0 0.00 0.00 0.00 48 1010.0
20260831055607 69 226 1.0 4.0 0.00 0.00 0.00 48 1010.0
20260831055105 69 251 1.0 3.0 0.00 0.00 0.00 48 1010.1
20260831054824 69 257 0.0 3.0 0.00 0.00 0.00 47 1010.1
20260831054059 69 259 0.0 2.0 0.00 0.00 0.00 46 1010.1
20260831053555 69 259 0.0 2.0 0.00 0.00 0.00 45 1010.1
20260831053053 69 261 0.0 1.0 0.00 0.00 0.00 44 1010.1
20260831053024 69 261 0.0 0.0 0.00 0.00 0.00 44 1010.2
20260831052640 69 261 0.0 0.0 0.00 0.00 0.00 44 1010.1
20260831051542 69 261 0.0 0.0 0.00 0.00 0.00 44 1010.2
20260831051042 69 261 0.0 1.0 0.00 0.00 0.00 44 1010.2
20260831050539 69 261 0.0 1.0 0.00 0.00 0.00 43 1010.2
20260831050259 69 261 0.0 1.0 0.00 0.00 0.00 43 1010.3
20260831045537 70 261 0.0 2.0 0.00 0.00 0.00 43 1010.3
20260831045036 70 261 0.0 2.0 0.00 0.00 0.00 43 1010.3
20260831044533 71 263 0.0 2.0 0.00 0.00 0.00 43 1010.3
20260831044031 71 264 1.0 4.0 0.00 0.00 0.00 41 1010.2
20260831043530 71 265 2.0 4.0 0.00 0.00 0.00 41 1010.2
20260831043249 71 298 3.0 7.0 0.00 0.00 0.00 41 1010.1
20260831042528 72 308 3.0 7.0 0.00 0.00 0.00 41 1010.1
20260831042028 72 311 4.0 8.0 0.00 0.00 0.00 41 1010.0
20260831041527 72 290 4.0 8.0 0.00 0.00 0.00 41 1010.0
20260831041025 72 321 4.0 8.0 0.00 0.00 0.00 41 1010.0
20260831040519 72 313 4.0 8.0 0.00 0.00 0.00 41 1009.9
20260831040019 73 309 3.0 8.0 0.00 0.00 0.00 41 1009.9
20260831035514 73 302 4.0 8.0 0.00 0.00 0.00 40 1009.8
20260831035015 74 272 4.0 9.0 0.00 0.00 0.00 39 1009.9
20260831034517 74 306 4.0 10.0 0.00 0.00 0.00 40 1009.8
20260831034014 74 272 4.0 10.0 0.00 0.00 0.00 41 1009.8
20260831033958 74 267 4.0 9.0 0.00 0.00 0.00 40 1009.7
20260831033013 75 277 4.0 9.0 0.00 0.00 0.00 40 1009.7
20260831032513 75 321 4.0 9.0 0.00 0.00 0.00 40 1009.7
20260831032011 75 296 3.0 9.0 0.00 0.00 0.00 39 1009.6
20260831031510 76 319 3.0 9.0 0.00 0.00 0.00 39 1009.7
20260831031011 76 305 3.0 9.0 0.00 0.00 0.00 39 1009.5
20260831030509 76 285 4.0 9.0 0.00 0.00 0.00 38 1009.5
20260831030008 77 305 4.0 8.0 0.00 0.00 0.00 37 1009.4
20260831025506 77 317 4.0 8.0 0.00 0.00 0.00 36 1009.3
20260831025001 78 267 4.0 10.0 0.00 0.00 0.00 34 1009.3
20260831024723 78 300 4.0 10.0 0.00 0.00 0.00 33 1009.3
20260831024001 78 285 4.0 8.0 0.00 0.00 0.00 33 1009.3
20260831023459 78 273 6.0 14.0 0.00 0.00 0.00 33 1009.3
20260831022956 79 281 7.0 14.0 0.00 0.00 0.00 33 1009.3
20260831022456 79 279 6.0 13.0 0.00 0.00 0.00 33 1009.3
20260831021957 80 273 7.0 12.0 0.00 0.00 0.00 33 1009.2
20260831021457 80 265 7.0 13.0 0.00 0.00 0.00 32 1009.3
20260831021212 81 250 7.0 13.0 0.00 0.00 0.00 31 1009.3
20260831020456 81 261 7.0 13.0 0.00 0.00 0.00 31 1009.2
20260831015957 82 228 7.0 11.0 0.00 0.00 0.00 30 1009.2
20260831015457 83 264 6.0 12.0 0.00 0.00 0.00 29 1009.1
20260831014956 83 261 6.0 12.0 0.00 0.00 0.00 29 1009.1
20260831014454 84 234 6.0 11.0 0.00 0.00 0.00 29 1009.1
20260831014212 84 277 7.0 11.0 0.00 0.00 0.00 28 1009.1
20260831013449 85 245 7.0 13.0 0.00 0.00 0.00 28 1009.0
20260831012949 85 239 7.0 13.0 0.00 0.00 0.00 27 1009.0
20260831012449 86 246 6.0 12.0 0.00 0.00 0.00 28 1009.0
20260831011944 86 254 5.0 11.0 0.00 0.00 0.00 31 1009.0
20260831011443 86 236 4.0 9.0 0.00 0.00 0.00 32 1009.0
20260831010942 86 205 2.0 9.0 0.00 0.00 0.00 32 1009.0
20260831010443 86 186 1.0 5.0 0.00 0.00 0.00 36 1009.0
20260831005941 87 350 2.0 8.0 0.00 0.00 0.00 34 1009.1
20260831005443 87 351 2.0 8.0 0.00 0.00 0.00 34 1009.1
20260831005157 88 320 3.0 8.0 0.00 0.00 0.00 34 1009.1
20260831004440 87 298 3.0 8.0 0.00 0.00 0.00 34 1009.1
20260831003937 87 323 2.0 8.0 0.00 0.00 0.00 34 1009.1
20260831003438 87 317 2.0 8.0 0.00 0.00 0.00 35 1009.2
20260831002936 88 294 2.0 6.0 0.00 0.00 0.00 34 1009.2
20260831002438 88 267 2.0 6.0 0.00 0.00 0.00 35 1009.3
20260831001936 88 355 2.0 6.0 0.00 0.00 0.00 35 1009.3
20260831001437 88 277 2.0 7.0 0.00 0.00 0.00 36 1009.4
20260831000936 88 302 3.0 7.0 0.00 0.00 0.00 35 1009.3
20260831000436 89 321 3.0 8.0 0.00 0.00 0.00 35 1009.3
20260830235936 88 68 3.0 8.0 0.00 0.00 0.00 36 1009.4
20260830235432 88 321 2.0 8.0 0.00 0.00 0.00 37 1009.4
20260830234932 88 355 2.0 7.0 0.00 0.00 0.00 36 1009.5
20260830234429 88 309 2.0 8.0 0.00 0.00 0.00 36 1009.5
20260830233929 89 342 4.0 11.0 0.00 0.00 0.00 35 1009.5
20260830233655 88 355 5.0 11.0 0.00 0.00 0.00 35 1009.6
20260830232927 88 355 4.0 10.0 0.00 0.00 0.00 36 1009.6
20260830232425 88 311 4.0 10.0 0.00 0.00 0.00 36 1009.6
20260830231925 89 315 4.0 8.0 0.00 0.00 0.00 35 1009.7
20260830231644 89 313 4.0 10.0 0.00 0.00 0.00 36 1009.7
20260830231138 88 26 4.0 10.0 0.00 0.00 0.00 36 1009.7
20260830230638 88 311 3.0 9.0 0.00 0.00 0.00 36 1009.7
20260830230352 88 336 4.0 9.0 0.00 0.00 0.00 36 1009.8
20260830225417 89 313 4.0 8.0 0.00 0.00 0.00 36 1009.9
20260830224917 87 331 4.0 9.0 0.00 0.00 0.00 37 1009.9
20260830224415 88 346 4.0 9.0 0.00 0.00 0.00 37 1010.0
20260830223912 89 337 5.0 11.0 0.00 0.00 0.00 36 1010.0
20260830223411 89 43 5.0 13.0 0.00 0.00 0.00 35 1010.1
20260830222910 89 355 4.0 13.0 0.00 0.00 0.00 37 1010.2
20260830222638 89 310 4.0 10.0 0.00 0.00 0.00 36 1010.3
20260830221910 89 339 4.0 10.0 0.00 0.00 0.00 35 1010.2
20260830221629 89 317 5.0 10.0 0.00 0.00 0.00 36 1010.3
20260830220905 89 327 5.0 10.0 0.00 0.00 0.00 36 1010.4
20260830220844 88 5 6.0 11.0 0.00 0.00 0.00 37 1010.5
20260830215859 88 351 5.0 11.0 0.00 0.00 0.00 36 1010.5
20260830215357 88 308 4.0 11.0 0.00 0.00 0.00 36 1010.5
20260830214856 88 304 5.0 12.0 0.00 0.00 0.00 36 1010.7
20260830214356 87 323 5.0 12.0 0.00 0.00 0.00 37 1010.7
20260830213856 88 317 5.0 11.0 0.00 0.00 0.00 38 1010.8
20260830213357 87 0 5.0 10.0 0.00 0.00 0.00 37 1010.9
20260830212855 87 16 4.0 10.0 0.00 0.00 0.00 37 1011.0
20260830212354 87 315 5.0 11.0 0.00 0.00 0.00 37 1011.1
20260830211855 87 344 6.0 11.0 0.00 0.00 0.00 37 1011.1
20260830211356 87 342 5.0 11.0 0.00 0.00 0.00 37 1011.1
20260830210855 87 342 5.0 11.0 0.00 0.00 0.00 37 1011.2
20260830210352 86 350 4.0 10.0 0.00 0.00 0.00 38 1011.2
20260830205852 87 355 5.0 12.0 0.00 0.00 0.00 37 1011.3
20260830205346 86 339 4.0 12.0 0.00 0.00 0.00 37 1011.3
20260830204846 87 21 3.0 9.0 0.00 0.00 0.00 37 1011.3
20260830204344 86 57 2.0 8.0 0.00 0.00 0.00 36 1011.4
20260830203843 86 37 2.0 8.0 0.00 0.00 0.00 36 1011.4
20260830203341 86 25 3.0 10.0 0.00 0.00 0.00 35 1011.4
20260830202839 86 54 3.0 10.0 0.00 0.00 0.00 35 1011.5
20260830202338 87 347 2.0 9.0 0.00 0.00 0.00 34 1011.5
20260830201840 87 267 3.0 9.0 0.00 0.00 0.00 34 1011.6
20260830201337 85 299 3.0 9.0 0.00 0.00 0.00 35 1011.7
20260830200836 86 5 3.0 9.0 0.00 0.00 0.00 33 1011.8
20260830200336 85 331 2.0 9.0 0.00 0.00 0.00 35 1011.8
20260830195836 85 31 2.0 7.0 0.00 0.00 0.00 35 1011.9
20260830195600 85 53 3.0 10.0 0.00 0.00 0.00 33 1011.9
20260830194834 85 55 3.0 10.0 0.00 0.00 0.00 35 1011.9
20260830194331 84 65 3.0 8.0 0.00 0.00 0.00 36 1012.0
20260830193829 85 60 3.0 8.0 0.00 0.00 0.00 37 1012.1
20260830193328 85 115 3.0 9.0 0.00 0.00 0.00 37 1012.1
20260830192828 83 90 3.0 9.0 0.00 0.00 0.00 39 1012.1
20260830192327 83 5 3.0 8.0 0.00 0.00 0.00 40 1012.2
20260830191825 83 44 3.0 8.0 0.00 0.00 0.00 39 1012.2
20260830191324 83 17 3.0 8.0 0.00 0.00 0.00 38 1012.3
20260830190824 84 314 3.0 6.0 0.00 0.00 0.00 37 1012.3
20260830190323 83 26 3.0 7.0 0.00 0.00 0.00 37 1012.4
20260830185823 83 5 3.0 7.0 0.00 0.00 0.00 38 1012.4
20260830185322 83 82 3.0 7.0 0.00 0.00 0.00 36 1012.4
20260830184822 83 71 3.0 6.0 0.00 0.00 0.00 36 1012.5
20260830184541 82 340 3.0 6.0 0.00 0.00 0.00 36 1012.5
20260830183814 83 64 3.0 7.0 0.00 0.00 0.00 35 1012.6
20260830183541 83 5 1.0 7.0 0.00 0.00 0.00 36 1012.6
20260830182813 82 30 1.0 5.0 0.00 0.00 0.00 37 1012.6
20260830182312 81 35 2.0 5.0 0.00 0.00 0.00 36 1012.6
20260830181809 81 82 3.0 5.0 0.00 0.00 0.00 37 1012.6
20260830181308 81 11 3.0 6.0 0.00 0.00 0.00 37 1012.6
20260830180806 81 45 2.0 6.0 0.00 0.00 0.00 37 1012.7
20260830180306 80 65 1.0 5.0 0.00 0.00 0.00 38 1012.6
20260830175806 80 5 2.0 5.0 0.00 0.00 0.00 39 1012.6
20260830175305 79 69 2.0 5.0 0.00 0.00 0.00 39 1012.6
20260830175025 80 80 2.0 5.0 0.00 0.00 0.00 40 1012.7
20260830174520 78 5 2.0 5.0 0.00 0.00 0.00 41 1012.7
20260830173800 78 21 2.0 5.0 0.00 0.00 0.00 41 1012.7
20260830173253 78 103 1.0 4.0 0.00 0.00 0.00 42 1012.8
20260830172751 76 60 1.0 5.0 0.00 0.00 0.00 43 1012.8
20260830172252 76 9 2.0 5.0 0.00 0.00 0.00 43 1012.8
20260830172004 76 355 1.0 7.0 0.00 0.00 0.00 43 1012.8
20260830171243 76 78 2.0 7.0 0.00 0.00 0.00 44 1012.8
20260830170740 75 340 2.0 5.0 0.00 0.00 0.00 44 1012.8
20260830170238 75 101 1.0 5.0 0.00 0.00 0.00 45 1012.8
20260830165737 75 166 1.0 4.0 0.00 0.00 0.00 44 1012.8
20260830165236 74 166 0.0 4.0 0.00 0.00 0.00 46 1012.9
20260830164736 72 79 1.0 4.0 0.00 0.00 0.00 48 1012.8
20260830164457 72 80 1.0 4.0 0.00 0.00 0.00 48 1012.7
20260830163735 70 293 1.0 3.0 0.00 0.00 0.00 51 1012.6
20260830163456 69 173 1.0 3.0 0.00 0.00 0.00 53 1012.7
20260830162735 69 173 1.0 3.0 0.00 0.00 0.00 55 1012.8
20260830162454 68 188 1.0 3.0 0.00 0.00 0.00 55 1012.8
20260830161732 67 188 1.0 3.0 0.00 0.00 0.00 56 1012.8
20260830161230 67 49 1.0 3.0 0.00 0.00 0.00 56 1012.9
20260830160730 66 49 1.0 3.0 0.00 0.00 0.00 57 1013.0
20260830160227 66 59 1.0 4.0 0.00 0.00 0.00 58 1013.0
20260830155727 65 55 1.0 4.0 0.00 0.00 0.00 60 1012.9
20260830155448 65 76 1.0 3.0 0.00 0.00 0.00 62 1012.9
20260830154726 64 77 1.0 4.0 0.00 0.00 0.00 62 1013.0
20260830154449 64 71 2.0 4.0 0.00 0.00 0.00 62 1012.9
20260830153727 64 74 2.0 4.0 0.00 0.00 0.00 62 1012.9
20260830153227 64 65 2.0 4.0 0.00 0.00 0.00 62 1012.9
20260830152725 63 13 2.0 4.0 0.00 0.00 0.00 63 1012.8
20260830152226 62 11 2.0 4.0 0.00 0.00 0.00 66 1012.8